Location: Dillon
(41.1766°N, 107.0923°W)
Time: 07:36:53
(UTC+00:00)

DELTA 2 DEB (DPAF) - Visible Passes

Search period start: 04 December 2023 00:00
Search period end: 14 December 2023 00:00
Orbit: 610 x 614 km, 98.4° (Epoch: 03 December)

Date Brightness Start Highest point End Pass type
(mag) Time Alt. Az. Time Alt. Az. Time Alt. Az.
04 Dec 6.5 01:47:06 11° SSE 01:47:06 11° SSE 01:47:17 10° SSE visible
04 Dec 5.9 12:32:55 10° SE 12:36:40 30° ENE 12:40:25 10° N visible
05 Dec 6.5 02:02:10 12° S 02:02:10 12° S 02:02:27 10° S visible
05 Dec 5.2 12:47:24 10° SE 12:51:27 42° ENE 12:55:31 10° N visible
06 Dec 6.6 02:17:12 11° S 02:17:12 11° S 02:17:27 10° S visible
06 Dec 4.5 13:02:01 10° SSE 13:06:15 62° ENE 13:10:29 10° N visible
07 Dec 6.8 02:32:13 10° SSW 02:32:13 10° SSW 02:32:15 10° SSW visible
07 Dec 4.0 13:16:46 10° SSE 13:21:03 89° WNW 13:25:21 10° NNW visible
08 Dec 6.9 11:58:33 10° E 12:00:30 13° ENE 12:02:26 10° NE visible
08 Dec 4.1 13:31:37 10° S 13:35:51 61° WSW 13:40:07 10° NNW visible
09 Dec 6.7 12:12:14 10° ESE 12:15:07 18° ENE 12:18:01 10° NNE visible
09 Dec 4.5 13:46:37 10° S 13:50:41 41° W 13:54:46 10° NNW visible
10 Dec 6.2 12:26:17 10° ESE 12:29:45 25° ENE 12:33:14 10° NNE visible
11 Dec 6.5 01:55:02 11° S 01:55:02 11° S 01:55:16 10° S visible
11 Dec 5.6 12:40:32 10° SE 12:44:24 34° ENE 12:48:17 10° N visible
12 Dec 6.6 02:09:56 12° S 02:09:56 12° S 02:10:13 10° S visible
12 Dec 4.9 12:54:56 10° SSE 12:59:03 49° ENE 13:03:12 10° N visible
13 Dec 6.7 02:24:48 11° SSW 02:24:48 11° SSW 02:24:59 10° SSW visible
13 Dec 4.3 13:09:28 10° SSE 13:13:43 72° ENE 13:18:00 10° N visible
